Regional Weather Roundup
Issued by NWS

Home | Current Version | Previous Version | Graphics & Text | Print | Product List | Glossary On
Versions: 1 2 3 4 5 6 7 8 9 10 11 12 13 14 15 16 17 18 19 20 21 22 23 24 25 26 27 28 29 30 31 32 33 34 35 36 37 38 39 40 41 42 43 44 45 46 47 48 49 50
691
ASUS43 KBIS 260210
RWRND

NORTH DAKOTA REGIONAL WEATHER ROUNDUP
NATIONAL WEATHER SERVICE BISMARCK ND
900 PM CDT THU AUG 25 2016

NOTE: "FAIR" INDICATES FEW OR NO CLOUDS BELOW 12,000 FEET WITH NO
SIGNIFICANT WEATHER AND/OR OBSTRUCTIONS TO VISIBILITY.


NDZ001>003-009>011-017-260300-
NORTHWEST NORTH DAKOTA

CITY           SKY/WX    TMP DP  RH WIND       PRES   REMARKS
WILLISTON      MOCLDY    67  41  38 SW5       30.08S
MINOT          CLEAR     64  39  39 CALM      30.06S
MINOT AFB      CLEAR     60  42  52 CALM      30.05S
$$

NDZ018>021-031>035-040>046-260300-
SOUTHWEST NORTH DAKOTA

CITY           SKY/WX    TMP DP  RH WIND       PRES   REMARKS
BISMARCK       PTCLDY    61  48  62 SW6       30.11F
DICKINSON      PTCLDY    56  39  53 SW8       30.11F
GARRISON         N/A     59  47  64 W3        30.08S
HETTINGER ARPT CLEAR     57  41  55 SW6       30.16S
$$

NDZ004>008-012>016-024-026-027-054-260300-
NORTHEAST NORTH DAKOTA

CITY           SKY/WX    TMP DP  RH WIND       PRES   REMARKS
GRAND FORKS    PTCLDY    59  52  77 SW9       30.04R
GRND FRKS AFB  PTCLDY    58  52  80 SW5       30.04S
DEVILS LAKE    CLEAR     64  48  56 SW3       30.07S
$$

NDZ022-023-025-028>030-036>039-047>053-260300-
SOUTHEAST NORTH DAKOTA

CITY           SKY/WX    TMP DP  RH WIND       PRES   REMARKS
FARGO          CLOUDY    63  52  67 SW6       30.07S
JAMESTOWN      PTCLDY    59  51  75 SW5       30.09S
$$





USA.gov is the U.S. government's official web portal to all federal, state and local government web resources and services.